星链-37101(STARLINK-37101)

导读

STARLINK-37101(NORAD编号68234)是美国太空探索技术公司(SpaceX)星链(Starlink)计划的卫星,属于星链低轨宽带互联网星座组成部分,运行于近地轨道。 该卫星在2025年12月出现异常,轨道高度骤降约4000米,发生解体并产生数十块空间碎片,随后与地面失去联系。SpaceX后续监测显示,卫星大致保持完整但处于翻滚状态,预计碎片会在数周内再入地球大气层烧毁,初步判定事故源于卫星内部问题,而非碰撞导致。

基本信息
目录编号:
68234
目录名称:
STARLINK-37101
国际标识:
2026-054C
轨道中心:
EARTH
卫星名称:
星链-37101
卫星全名:
星链-37101(STARLINK-37101)
卫星状态:
在轨 (已飞行85 天)
发射日期:
2026-03-17 UTC
国别 :
美国 (US)
星等 :
--
轨道信息
数据来源 国际轨道数据
星历时间: 2026-06-09T19:12:08+0800
1天前
查看轨道信息
半长轴: 6796.821km
偏心率: 0.000101
轨道倾角: 53.158°
近地点辐角 85.044°
升交点赤经 227.040°
平近点角 275.069°
近地点: 417.997km
远地点: 419.371km
周期: 92.943分钟
每日圈数: 15.493303
详细信息
固有亮度:
5
最大亮度:
2.5
卫星平台:
Starlink V1.0
覆盖范围:
全球
运营商:
太空探索技术公司
运营商所在国:
美国
制造商(研发单位):
太空探索技术公司
制造商所在国:
美国
使用方式:
暂无
卫星简介
Starlink 计划是 SpaceX 推出的全球卫星互联网项目,通过发射低轨道卫星,为全球尤其是偏远地区提供高速、低延迟的互联网服务。自 2019 年起,Starlink 已部署数千颗卫星,旨在缩小全球数字鸿沟,推动互联网普及。该项目还为军事、航空等行业提供通信支持,带来广泛经济效益。
2D轨道图
3D轨道图
轨道高度分析图
轨道倾角分析图
轨道综合分析图
查看轨道综合分析图